THOR ABLESTAR DEB, 152

Orbit data source: Space-Track

THOR ABLESTAR DEB, 152 is space debris in LEO originally from a launch on Thu, 29 Jun 1961 UTC launched from the Air Force Eastern Test Range (AFETR). Debris objects in space refer to the collection of defunct objects orbiting the Earth. Examples of debris include non-operational satellites, rocket bodies, and fragments generated from explosions, collisions, or faulty payload assembly.

Loading next visibility...
Identifier
152, 1961-015AN
Orbit
LEO
Country
Flag of USUS
Related business
Manufacturer
Unknown
Mission
Spacecraft
Bus & Motor
Unknown
Mass
Unknown
Launch date (UTC)
1961-06-29 (64 years ago)
Launch vehicle
Unknown
Launch site
Air Force Eastern Test Range (AFETR)
Object type
Payload
Rocket body
Debris
Shape & HBR
Unknown shape, 0.2 m
Radar Cross Section
Medium (>0.1 m² and <1 m²)

Expand to show TLE details & history
Last TLE update: 1 day ago

TLE from 1 day ago
0 THOR ABLESTAR DEB
1 00152U 61015AN  25311.97354928  .00000676  00000-0  37652-3 0  9995
2 00152  66.5911 163.3667 0151772 344.3075  15.3334 14.11304314294869
Epoch: 2025-11-07T23:21Z
TLE epoch observation values (Epoch: 2025-11-07T23:21:54.657Z)
Latitude
-0.00003°
Longitude
125.47912°
Altitude
751.23 km
Speed
7.534 km/s
True Right ascension
10h 53m 28s
True Declination
0° 00' 00"
Sunlit
Object was in daylight at epoch
Visualization orbit readout
Latitude
Unknown
Longitude
Unknown
Altitude
Unknown
Speed
Unknown
Apparent Right ascension
Unknown
Apparent Declination
Unknown
Sunlit
N/A
Visualization observer readout
Local Sidereal Time
21:56:37
Azimuth
Unknown
Elevation
Unknown
Doppler factor
Unknown
Orbital elements
Apogee altitude
963.066 km
Perigee altitude
743.56 km
Semi-major axis
7,231.45 km
Eccentricity
0.01518
Inclination
66.5911°
RAAN
163.3667°
Arg. of periapsis
344.3075°
True anomaly
15.80186°
Mean anomaly
15.3334°
Eccentric anomaly
15.56676°
Mean motion
3.52943 °/min
Orbital period
102 mins
BSTAR
0.00037652
Loading maneuver chart data...
Computing Atmospheric mass density...

Documentation

Showing up to 5 results
|